| time (UTC) | temp C | wind direction | speed KPH | gust KPH | rain 1hr cm | rain 24hr cm | rain mn cm | humidity % | barometer mb |
| 20260901092331 | 17 | 255 | 14.5 | 22.5 | 0.00 | 0.00 | 0.00 | 40 | 1015.4 |
| 20260901091834 | 17 | 249 | 14.5 | 22.5 | 0.00 | 0.00 | 0.00 | 41 | 1015.4 |
| 20260901091337 | 17 | 250 | 16.1 | 24.1 | 0.00 | 0.00 | 0.00 | 40 | 1015.2 |
| 20260901090840 | 17 | 254 | 16.1 | 24.1 | 0.00 | 0.00 | 0.00 | 40 | 1016.2 |
| 20260901090343 | 17 | 255 | 17.7 | 24.1 | 0.00 | 0.00 | 0.00 | 41 | 1016.1 |
| 20260901085846 | 17 | 259 | 16.1 | 24.1 | 0.00 | 0.00 | 0.00 | 42 | 1016.1 |
| 20260901085349 | 17 | 258 | 17.7 | 24.1 | 0.00 | 0.00 | 0.00 | 43 | 1016.2 |
| 20260901084852 | 17 | 261 | 16.1 | 24.1 | 0.00 | 0.00 | 0.00 | 45 | 1016.2 |
| 20260901084355 | 17 | 265 | 17.7 | 24.1 | 0.00 | 0.00 | 0.00 | 45 | 1016.2 |
| 20260901083858 | 17 | 266 | 16.1 | 22.5 | 0.00 | 0.00 | 0.00 | 46 | 1016.3 |
| 20260901082904 | 17 | 265 | 12.9 | 22.5 | 0.00 | 0.00 | 0.00 | 49 | 1016.3 |
| 20260901082407 | 17 | 268 | 12.9 | 22.5 | 0.00 | 0.00 | 0.00 | 49 | 1016.3 |
| 20260901081413 | 16 | 261 | 9.7 | 17.7 | 0.00 | 0.00 | 0.00 | 50 | 1016.3 |
| 20260901080916 | 17 | 263 | 11.3 | 19.3 | 0.00 | 0.00 | 0.00 | 50 | 1016.3 |
| 20260901080419 | 17 | 260 | 9.7 | 19.3 | 0.00 | 0.00 | 0.00 | 50 | 1016.4 |
| 20260901075922 | 17 | 263 | 9.7 | 22.5 | 0.00 | 0.00 | 0.00 | 50 | 1016.4 |
| 20260901075425 | 17 | 269 | 11.3 | 22.5 | 0.00 | 0.00 | 0.00 | 50 | 1016.4 |
| 20260901074928 | 17 | 265 | 14.5 | 22.5 | 0.00 | 0.00 | 0.00 | 51 | 1016.3 |
| 20260901074431 | 17 | 265 | 14.5 | 22.5 | 0.00 | 0.00 | 0.00 | 51 | 1016.4 |
| 20260901073934 | 17 | 264 | 14.5 | 20.9 | 0.00 | 0.00 | 0.00 | 51 | 1016.4 |
| 20260901073437 | 17 | 255 | 14.5 | 22.5 | 0.00 | 0.00 | 0.00 | 50 | 1016.4 |
| 20260901072940 | 17 | 258 | 16.1 | 27.4 | 0.00 | 0.00 | 0.00 | 50 | 1016.3 |
| 20260901072443 | 17 | 260 | 16.1 | 27.4 | 0.00 | 0.00 | 0.00 | 50 | 1016.4 |
| 20260901071946 | 17 | 257 | 19.3 | 27.4 | 0.00 | 0.00 | 0.00 | 47 | 1016.2 |
| 20260901071449 | 18 | 262 | 17.7 | 27.4 | 0.00 | 0.00 | 0.00 | 44 | 1016.2 |
| 20260901070952 | 18 | 262 | 17.7 | 25.7 | 0.00 | 0.00 | 0.00 | 43 | 1016.2 |
| 20260901070455 | 18 | 265 | 19.3 | 25.7 | 0.00 | 0.00 | 0.00 | 42 | 1016.2 |
| 20260901065501 | 18 | 265 | 17.7 | 25.7 | 0.00 | 0.00 | 0.00 | 41 | 1016.3 |
| 20260901064507 | 18 | 255 | 16.1 | 24.1 | 0.00 | 0.00 | 0.00 | 41 | 1016.3 |
| 20260901064010 | 18 | 260 | 16.1 | 22.5 | 0.00 | 0.00 | 0.00 | 42 | 1016.4 |
| 20260901063513 | 18 | 258 | 14.5 | 20.9 | 0.00 | 0.00 | 0.00 | 41 | 1016.4 |
| 20260901062519 | 18 | 254 | 14.5 | 20.9 | 0.00 | 0.00 | 0.00 | 40 | 1016.5 |
| 20260901061525 | 18 | 251 | 14.5 | 22.5 | 0.00 | 0.00 | 0.00 | 36 | 1016.5 |
| 20260901061028 | 18 | 254 | 14.5 | 22.5 | 0.00 | 0.00 | 0.00 | 34 | 1016.5 |
| 20260901060531 | 18 | 259 | 14.5 | 20.9 | 0.00 | 0.00 | 0.00 | 31 | 1016.5 |
| 20260901060034 | 18 | 257 | 16.1 | 20.9 | 0.00 | 0.00 | 0.00 | 27 | 1016.6 |
| 20260901055040 | 18 | 253 | 14.5 | 22.5 | 0.00 | 0.00 | 0.00 | 26 | 1016.5 |
| 20260901054543 | 18 | 252 | 14.5 | 22.5 | 0.00 | 0.00 | 0.00 | 27 | 1016.4 |
| 20260901054046 | 18 | 254 | 16.1 | 20.9 | 0.00 | 0.00 | 0.00 | 28 | 1016.4 |
| 20260901052555 | 17 | 246 | 12.9 | 17.7 | 0.00 | 0.00 | 0.00 | 36 | 1016.4 |
| 20260901052058 | 17 | 242 | 12.9 | 19.3 | 0.00 | 0.00 | 0.00 | 40 | 1016.4 |
| 20260901051602 | 17 | 244 | 14.5 | 19.3 | 0.00 | 0.00 | 0.00 | 41 | 1016.4 |
| 20260901051104 | 17 | 241 | 14.5 | 19.3 | 0.00 | 0.00 | 0.00 | 43 | 1016.4 |
| 20260901050607 | 17 | 245 | 14.5 | 20.9 | 0.00 | 0.00 | 0.00 | 44 | 1016.3 |
| 20260901050110 | 17 | 240 | 16.1 | 20.9 | 0.00 | 0.00 | 0.00 | 44 | 1016.3 |
| 20260901045613 | 17 | 237 | 14.5 | 19.3 | 0.00 | 0.00 | 0.00 | 41 | 1016.3 |
| 20260901044619 | 18 | 238 | 14.5 | 20.9 | 0.00 | 0.00 | 0.00 | 37 | 1016.3 |
| 20260901044122 | 18 | 244 | 14.5 | 19.3 | 0.00 | 0.00 | 0.00 | 37 | 1016.2 |
| 20260901043625 | 18 | 245 | 14.5 | 20.9 | 0.00 | 0.00 | 0.00 | 36 | 1016.3 |
| 20260901042631 | 18 | 241 | 17.7 | 22.5 | 0.00 | 0.00 | 0.00 | 39 | 1016.3 |
| 20260901042134 | 18 | 245 | 16.1 | 22.5 | 0.00 | 0.00 | 0.00 | 41 | 1016.2 |
| 20260901041637 | 18 | 242 | 16.1 | 22.5 | 0.00 | 0.00 | 0.00 | 42 | 1016.2 |
| 20260901041140 | 18 | 241 | 16.1 | 22.5 | 0.00 | 0.00 | 0.00 | 42 | 1016.2 |
| 20260901040643 | 18 | 240 | 16.1 | 25.7 | 0.00 | 0.00 | 0.00 | 43 | 1016.0 |
| 20260901040146 | 18 | 240 | 17.7 | 25.7 | 0.00 | 0.00 | 0.00 | 44 | 1015.9 |
| 20260901035649 | 18 | 240 | 17.7 | 24.1 | 0.00 | 0.00 | 0.00 | 47 | 1015.8 |
| 20260901035152 | 17 | 242 | 17.7 | 24.1 | 0.00 | 0.00 | 0.00 | 50 | 1015.7 |
| 20260901034655 | 17 | 242 | 17.7 | 24.1 | 0.00 | 0.00 | 0.00 | 55 | 1015.7 |
| 20260901034158 | 17 | 237 | 19.3 | 24.1 | 0.00 | 0.00 | 0.00 | 61 | 1015.5 |
| 20260901033701 | 17 | 237 | 19.3 | 24.1 | 0.00 | 0.00 | 0.00 | 65 | 1015.4 |
| 20260901032707 | 17 | 235 | 17.7 | 24.1 | 0.00 | 0.00 | 0.00 | 68 | 1015.3 |
| 20260901031713 | 17 | 235 | 17.7 | 25.7 | 0.00 | 0.00 | 0.00 | 67 | 1015.1 |
| 20260901031216 | 17 | 240 | 17.7 | 25.7 | 0.00 | 0.00 | 0.00 | 66 | 1015.1 |
| 20260901030719 | 17 | 239 | 17.7 | 25.7 | 0.00 | 0.00 | 0.00 | 66 | 1015.1 |
| 20260901030222 | 17 | 245 | 19.3 | 27.4 | 0.00 | 0.00 | 0.00 | 66 | 1015.0 |
| 20260901025228 | 18 | 242 | 19.3 | 27.4 | 0.00 | 0.00 | 0.00 | 64 | 1015.1 |
| 20260901024731 | 18 | 242 | 20.9 | 30.6 | 0.00 | 0.00 | 0.00 | 64 | 1014.9 |
| 20260901023240 | 18 | 244 | 20.9 | 30.6 | 0.00 | 0.00 | 0.00 | 62 | 1014.7 |
| 20260901021749 | 19 | 258 | 19.3 | 30.6 | 0.00 | 0.00 | 0.00 | 60 | 1014.6 |
| 20260901021252 | 19 | 261 | 22.5 | 30.6 | 0.00 | 0.00 | 0.00 | 60 | 1014.4 |
| 20260901020258 | 20 | 254 | 22.5 | 29.0 | 0.00 | 0.00 | 0.00 | 57 | 1015.2 |
| 20260901015801 | 20 | 252 | 16.1 | 27.4 | 0.00 | 0.00 | 0.00 | 57 | 1015.1 |
| 20260901015305 | 20 | 262 | 17.7 | 27.4 | 0.00 | 0.00 | 0.00 | 56 | 1015.0 |
| 20260901014310 | 21 | 254 | 20.9 | 35.4 | 0.00 | 0.00 | 0.00 | 53 | 1015.0 |
| 20260901013316 | 21 | 260 | 19.3 | 32.2 | 0.00 | 0.00 | 0.00 | 51 | 1015.0 |
| 20260901012322 | 22 | 259 | 24.1 | 32.2 | 0.00 | 0.00 | 0.00 | 50 | 1015.1 |
| 20260901010831 | 22 | 262 | 16.1 | 30.6 | 0.00 | 0.00 | 0.00 | 50 | 1015.2 |
| 20260901010334 | 22 | 262 | 22.5 | 30.6 | 0.00 | 0.00 | 0.00 | 49 | 1015.1 |
| 20260901005340 | 23 | 258 | 20.9 | 30.6 | 0.00 | 0.00 | 0.00 | 49 | 1015.1 |
| 20260901003849 | 23 | 270 | 12.9 | 32.2 | 0.00 | 0.00 | 0.00 | 49 | 1015.3 |
| 20260901003352 | 23 | 254 | 16.1 | 35.4 | 0.00 | 0.00 | 0.00 | 49 | 1015.3 |
| 20260901002855 | 23 | 261 | 24.1 | 35.4 | 0.00 | 0.00 | 0.00 | 48 | 1015.3 |
| 20260901002358 | 24 | 268 | 20.9 | 35.4 | 0.00 | 0.00 | 0.00 | 48 | 1015.3 |
| 20260901001404 | 24 | 249 | 19.3 | 35.4 | 0.00 | 0.00 | 0.00 | 48 | 1015.4 |
| 20260901000907 | 24 | 280 | 20.9 | 33.8 | 0.00 | 0.00 | 0.00 | 48 | 1015.4 |
| 20260901000412 | 24 | 251 | 20.9 | 33.8 | 0.00 | 0.00 | 0.00 | 48 | 1015.6 |
| 20260831234919 | 25 | 264 | 22.5 | 35.4 | 0.00 | 0.00 | 0.00 | 46 | 1015.4 |
| 20260831234422 | 25 | 283 | 19.3 | 38.6 | 0.00 | 0.00 | 0.00 | 46 | 1015.6 |
| 20260831233428 | 25 | 278 | 20.9 | 41.8 | 0.00 | 0.00 | 0.00 | 46 | 1015.7 |
| 20260831232931 | 25 | 276 | 20.9 | 41.8 | 0.00 | 0.00 | 0.00 | 45 | 1015.4 |
| 20260831231937 | 25 | 269 | 19.3 | 35.4 | 0.00 | 0.00 | 0.00 | 45 | 1015.6 |
| 20260831230446 | 25 | 260 | 24.1 | 38.6 | 0.00 | 0.00 | 0.00 | 44 | 1015.7 |
| 20260831225949 | 26 | 275 | 20.9 | 33.8 | 0.00 | 0.00 | 0.00 | 44 | 1015.7 |
| 20260831224955 | 25 | 269 | 20.9 | 38.6 | 0.00 | 0.00 | 0.00 | 44 | 1015.7 |
| 20260831224458 | 26 | 267 | 20.9 | 33.8 | 0.00 | 0.00 | 0.00 | 44 | 1015.7 |
| 20260831224001 | 26 | 263 | 25.7 | 33.8 | 0.00 | 0.00 | 0.00 | 43 | 1015.8 |
| 20260831222510 | 26 | 271 | 19.3 | 35.4 | 0.00 | 0.00 | 0.00 | 43 | 1015.8 |
| 20260831221019 | 26 | 257 | 20.9 | 35.4 | 0.00 | 0.00 | 0.00 | 43 | 1015.8 |
| 20260831220522 | 26 | 287 | 19.3 | 37.0 | 0.00 | 0.00 | 0.00 | 43 | 1015.8 |
| 20260831215528 | 26 | 247 | 14.5 | 38.6 | 0.00 | 0.00 | 0.00 | 42 | 1015.8 |
| 20260831215031 | 26 | 257 | 16.1 | 38.6 | 0.00 | 0.00 | 0.00 | 41 | 1015.8 |
| 20260831214534 | 26 | 255 | 17.7 | 35.4 | 0.00 | 0.00 | 0.00 | 41 | 1015.7 |
| 20260831214037 | 27 | 267 | 24.1 | 37.0 | 0.00 | 0.00 | 0.00 | 40 | 1015.8 |
| 20260831213540 | 27 | 259 | 22.5 | 37.0 | 0.00 | 0.00 | 0.00 | 40 | 1015.9 |
| 20260831213043 | 27 | 251 | 19.3 | 33.8 | 0.00 | 0.00 | 0.00 | 39 | 1015.9 |
| 20260831212546 | 27 | 270 | 22.5 | 33.8 | 0.00 | 0.00 | 0.00 | 38 | 1016.1 |
| 20260831212049 | 27 | 260 | 20.9 | 32.2 | 0.00 | 0.00 | 0.00 | 37 | 1016.1 |
| 20260831210558 | 27 | 237 | 17.7 | 32.2 | 0.00 | 0.00 | 0.00 | 36 | 1016.4 |
| 20260831205604 | 27 | 256 | 17.7 | 35.4 | 0.00 | 0.00 | 0.00 | 35 | 1016.3 |
| 20260831204113 | 26 | 266 | 17.7 | 32.2 | 0.00 | 0.00 | 0.00 | 38 | 1016.4 |
| 20260831203616 | 27 | 225 | 22.5 | 32.2 | 0.00 | 0.00 | 0.00 | 37 | 1016.6 |
| 20260831202622 | 27 | 235 | 16.1 | 32.2 | 0.00 | 0.00 | 0.00 | 38 | 1016.6 |
| 20260831201131 | 26 | 206 | 14.5 | 32.2 | 0.00 | 0.00 | 0.00 | 39 | 1016.5 |
| 20260831200634 | 26 | 218 | 19.3 | 30.6 | 0.00 | 0.00 | 0.00 | 39 | 1016.6 |
| 20260831200137 | 26 | 238 | 16.1 | 30.6 | 0.00 | 0.00 | 0.00 | 40 | 1016.8 |
| 20260831195143 | 26 | 253 | 6.4 | 30.6 | 0.00 | 0.00 | 0.00 | 40 | 1016.8 |
| 20260831194646 | 27 | 223 | 17.7 | 30.6 | 0.00 | 0.00 | 0.00 | 39 | 1016.8 |
| 20260831194149 | 26 | 236 | 11.3 | 35.4 | 0.00 | 0.00 | 0.00 | 41 | 1016.9 |
| 20260831193652 | 26 | 239 | 14.5 | 35.4 | 0.00 | 0.00 | 0.00 | 41 | 1016.9 |
| 20260831193155 | 26 | 271 | 17.7 | 35.4 | 0.00 | 0.00 | 0.00 | 42 | 1016.9 |
| 20260831192201 | 26 | 222 | 22.5 | 32.2 | 0.00 | 0.00 | 0.00 | 42 | |
| 20260831190710 | 26 | 217 | 22.5 | 35.4 | 0.00 | 0.00 | 0.00 | 37 | 1017.2 |
| 20260831185219 | 26 | 213 | 20.9 | 33.8 | 0.00 | 0.00 | 0.00 | 37 | 1017.1 |
| 20260831183728 | 25 | 211 | 14.5 | 32.2 | 0.00 | 0.00 | 0.00 | 38 | 1017.2 |
| 20260831183231 | 25 | 212 | 22.5 | 32.2 | 0.00 | 0.00 | 0.00 | 39 | 1017.2 |
| 20260831182237 | 25 | 229 | 11.3 | 32.2 | 0.00 | 0.00 | 0.00 | 36 | 1017.3 |
| 20260831180746 | 25 | 214 | 19.3 | 29.0 | 0.00 | 0.00 | 0.00 | 36 | 1017.1 |
| 20260831180249 | 26 | 211 | 17.7 | 25.7 | 0.00 | 0.00 | 0.00 | 35 | 1017.0 |
| 20260831175752 | 25 | 273 | 16.1 | 29.0 | 0.00 | 0.00 | 0.00 | 34 | 1017.1 |
| 20260831175255 | 25 | 250 | 12.9 | 29.0 | 0.00 | 0.00 | 0.00 | 34 | 1017.2 |
| 20260831174758 | 25 | 276 | 14.5 | 30.6 | 0.00 | 0.00 | 0.00 | 33 | 1017.1 |
| 20260831174301 | 25 | 269 | 17.7 | 30.6 | 0.00 | 0.00 | 0.00 | 34 | 1017.1 |
| 20260831173804 | 25 | 219 | 17.7 | 29.0 | 0.00 | 0.00 | 0.00 | 33 | 1016.2 |
| 20260831173307 | 25 | 246 | 9.7 | 25.7 | 0.00 | 0.00 | 0.00 | 34 | 1016.2 |
| 20260831172810 | 25 | 222 | 17.7 | 32.2 | 0.00 | 0.00 | 0.00 | 36 | 1016.3 |
| 20260831172313 | 25 | 237 | 9.7 | 32.2 | 0.00 | 0.00 | 0.00 | 33 | 1016.3 |
| 20260831171816 | 25 | 222 | 19.3 | 32.2 | 0.00 | 0.00 | 0.00 | 31 | 1016.2 |
| 20260831170325 | 24 | 259 | 14.5 | 25.7 | 0.00 | 0.00 | 0.00 | 30 | 1015.9 |
| 20260831165828 | 24 | 236 | 9.7 | 30.6 | 0.00 | 0.00 | 0.00 | 29 | 1015.9 |
| 20260831164834 | 24 | 265 | 17.7 | 27.4 | 0.00 | 0.00 | 0.00 | 27 | 1015.8 |
| 20260831164337 | 24 | 267 | 11.3 | 25.7 | 0.00 | 0.00 | 0.00 | 26 | 1015.8 |
| 20260831163840 | 23 | 266 | 16.1 | 25.7 | 0.00 | 0.00 | 0.00 | 26 | 1015.8 |
| 20260831163343 | 23 | 267 | 11.3 | 32.2 | 0.00 | 0.00 | 0.00 | 26 | 1015.9 |
| 20260831155904 | 23 | 256 | 12.9 | 27.4 | 0.00 | 0.00 | 0.00 | 23 | 1015.6 |
| 20260831155407 | 22 | 259 | 17.7 | 29.0 | 0.00 | 0.00 | 0.00 | 22 | 1015.4 |
| 20260831154413 | 22 | 270 | 20.9 | 32.2 | 0.00 | 0.00 | 0.00 | 23 | 1015.5 |
| 20260831153419 | 21 | 270 | 22.5 | 33.8 | 0.00 | 0.00 | 0.00 | 23 | 1015.4 |
| 20260831145940 | 20 | 260 | 22.5 | 35.4 | 0.00 | 0.00 | 0.00 | 25 | 1015.0 |
| 20260831145443 | 20 | 260 | 22.5 | 35.4 | 0.00 | 0.00 | 0.00 | 25 | 1014.9 |
| 20260831144449 | 20 | 259 | 24.1 | 35.4 | 0.00 | 0.00 | 0.00 | 25 | 1014.9 |
| 20260831143952 | 20 | 256 | 24.1 | 35.4 | 0.00 | 0.00 | 0.00 | 25 | 1014.9 |
| 20260831142958 | 19 | 256 | 24.1 | 33.8 | 0.00 | 0.00 | 0.00 | 26 | 1014.7 |
| 20260831142501 | 19 | 250 | 25.7 | 35.4 | 0.00 | 0.00 | 0.00 | 26 | 1014.7 |
| 20260831141011 | 18 | 254 | 20.9 | 33.8 | 0.00 | 0.00 | 0.00 | 28 | 1014.5 |
| 20260831140513 | 18 | 253 | 22.5 | 33.8 | 0.00 | 0.00 | 0.00 | 28 | 1014.5 |
| 20260831135519 | 18 | 251 | 25.7 | 33.8 | 0.00 | 0.00 | 0.00 | 28 | 1014.1 |
| 20260831134029 | 18 | 250 | 25.7 | 35.4 | 0.00 | 0.00 | 0.00 | 28 | 1014.6 |
| 20260831133532 | 18 | 250 | 22.5 | 33.8 | 0.00 | 0.00 | 0.00 | 28 | 1014.5 |
| 20260831133034 | 18 | 250 | 24.1 | 35.4 | 0.00 | 0.00 | 0.00 | 28 | 1014.5 |
| 20260831132537 | 18 | 252 | 25.7 | 35.4 | 0.00 | 0.00 | 0.00 | 28 | 1014.5 |
| 20260831132041 | 18 | 256 | 25.7 | 35.4 | 0.00 | 0.00 | 0.00 | 28 | 1014.5 |
| 20260831125556 | 18 | 255 | 27.4 | 35.4 | 0.00 | 0.00 | 0.00 | 27 | 1014.2 |
| 20260831125059 | 18 | 256 | 24.1 | 35.4 | 0.00 | 0.00 | 0.00 | 26 | 1014.2 |
| 20260831124105 | 18 | 252 | 25.7 | 38.6 | 0.00 | 0.00 | 0.00 | 26 | 1014.2 |
| 20260831123607 | 18 | 259 | 29.0 | 38.6 | 0.00 | 0.00 | 0.00 | 26 | 1014.2 |
| 20260831123111 | 18 | 254 | 27.4 | 38.6 | 0.00 | 0.00 | 0.00 | 26 | 1014.2 |
| 20260831122613 | 18 | 251 | 27.4 | 38.6 | 0.00 | 0.00 | 0.00 | 27 | 1014.0 |
| 20260831121619 | 18 | 253 | 27.4 | 38.6 | 0.00 | 0.00 | 0.00 | 26 | 1014.1 |
| 20260831120625 | 18 | 252 | 29.0 | 40.2 | 0.00 | 0.00 | 0.00 | 26 | 1013.9 |
| 20260831120129 | 18 | 253 | 27.4 | 40.2 | 0.00 | 0.00 | 0.00 | 26 | 1013.9 |
| 20260831115135 | 18 | 258 | 29.0 | 38.6 | 0.00 | 0.00 | 0.00 | 26 | 1014.0 |
| 20260831114638 | 18 | 256 | 25.7 | 38.6 | 0.00 | 0.00 | 0.00 | 26 | 1014.0 |
| 20260831113644 | 18 | 253 | 25.7 | 38.6 | 0.00 | 0.00 | 0.00 | 27 | 1014.0 |
| 20260831112649 | 18 | 261 | 22.5 | 37.0 | 0.00 | 0.00 | 0.00 | 27 | 1014.0 |
| 20260831112153 | 18 | 257 | 25.7 | 37.0 | 0.00 | 0.00 | 0.00 | 27 | 1014.0 |
| 20260831105708 | 18 | 256 | 30.6 | 38.6 | 0.00 | 0.00 | 0.00 | 27 | 1013.8 |
| 20260831104217 | 18 | 255 | 27.4 | 40.2 | 0.00 | 0.00 | 0.00 | 28 | 1014.0 |
| 20260831103720 | 18 | 258 | 24.1 | 38.6 | 0.00 | 0.00 | 0.00 | 29 | 1013.9 |
| 20260831102229 | 18 | 256 | 24.1 | 41.8 | 0.00 | 0.00 | 0.00 | 31 | 1014.0 |
| 20260831101235 | 18 | 257 | 27.4 | 37.0 | 0.00 | 0.00 | 0.00 | 33 | 1014.1 |
| 20260831100738 | 18 | 249 | 27.4 | 37.0 | 0.00 | 0.00 | 0.00 | 34 | 1014.0 |
| 20260831095744 | 18 | 248 | 25.7 | 38.6 | 0.00 | 0.00 | 0.00 | 35 | 1014.0 |
| 20260831095247 | 18 | 257 | 27.4 | 38.6 | 0.00 | 0.00 | 0.00 | 35 | 1014.0 |
| 20260831094750 | 18 | 258 | 25.7 | 38.6 | 0.00 | 0.00 | 0.00 | 36 | 1014.2 |
| 20260831094253 | 18 | 253 | 24.1 | 35.4 | 0.00 | 0.00 | 0.00 | 36 | 1014.2 |
| 20260831093259 | 18 | 256 | 24.1 | 37.0 | 0.00 | 0.00 | 0.00 | 36 | 1014.1 |